Starlink 30493

operational
NORAD ID: 58116 Int'l Des: 2023-161 Owner: SPXS Country: US Constellation: starlink
LEOCIRCULAR

Starlink 30493について

説明を読み込み中...

リアルタイム位置

3D地球を読み込み中...

次回通過

高度履歴

Altitude vs Time

uPlot chart will show altitude changes over time

軌道要素

1 58116U 23161V 25346.91557210 .00001053 00000-0 47692-4 0 9995
2 58116 53.1608 208.7653 0001335 93.4285 266.6869 15.30197071121135
Epoch: Dec 12, 2025 • Age: 32 hours

現在のステータス

高度 477.9 km
速度 7.63 km/s
衛星直下点 38.53°N, 72.7°E
打ち上げ日 Oct 21, 2023
運用期間 2.1 years
タイプ internet

技術仕様

分類 Payload
質量 730.00 kg
乾燥質量 700.00 kg
総質量 730.00 kg
長さ 0.30 m
直径 4.10 m
スパン 29.00 m
形状 Box + pan
製造者 SPXS
バスタイプ Starlink V2M
フェーズステータス In Orbit
所有者/国 SPXS/US

大規模コンステレーション

Loading constellations...